www.pogodaiklimat.ru

Погода и климат >> Архив погоды >> Австралия >> Западная Австралия >> Параберду


ПОГОДА в Параберду

  • Прогноз погоды в Параберду
  • Монитор погоды в Параберду

АРХИВ ПОГОДЫ в Параберду

Время (UTC), дата Ветер
(напр.,м/с)
 
Видим.   Явления Облачность Т
(С)
Тd
(С)
f
(%)
Тe
(С)
Тes
(С)
Комфортность P
(гПа)
Po
(гПа)
Тmin
(С)
Tmax
(С)
R
(мм)
R24
(мм)
S
(см)
10 18.06 Ю 3 н/о н/о +22.1 -1.9 20 +21 +21 комфорт 1015.7 966.8
12 18.06 Ю 1 н/о н/о +18.3 -1.5 26 +20 +20 1016.3 967.4
13 18.06 ЮЗ 1 н/о н/о +16.6 -2.0 28 +18 +18 1016.5 967.6 +26.7
15 18.06 СВ 3 н/о н/о +14.0 +0.3 39 +13 +13 1016.2 967.3
16 18.06 СВ 4 н/о н/о +13.4 +0.1 40 +12 +12 1015.8 966.9
18 18.06 СВ 3 н/о н/о +12.1 +0.2 44 +11 +11 1015.6 966.7
19 18.06 СВ 5 н/о н/о +13.6 +1.6 44 +12 +12 1015.5 966.6
21 18.06 В 2 н/о н/о +12.0 +2.2 51 +11 +11 1015.5 966.6
22 18.06 СВ 3 н/о н/о +12.1 +2.3 51 +11 +11 1015.9 967.0
00 19.06 СВ 4 н/о н/о +15.4 +2.6 42 +15 +15 1016.8 967.9
01 19.06 В 5 н/о н/о +19.4 +2.3 32 +20 +20 1017.0 968.1 +10.6
03 19.06 В 5 н/о н/о +23.4 +2.8 26 +23 +23 комфорт 1015.9 967.0
04 19.06 СВ 3 н/о н/о +25.3 +3.3 24 +24 +24 комфорт 1015.0 966.2
06 19.06 Ю 4 н/о н/о +25.8 +0.5 19 +24 +24 комфорт 1013.6 964.8
07 19.06 СЗ 2 н/о 3/0
[]
+27.2 +0.1 17 +25 +29 комфорт 1013.3 964.5
09 19.06 Ю 3 н/о н/о +25.7 +0.4 19 +24 +24 комфорт 1013.4 964.6
10 19.06 Ю 4 н/о 9/0
[]
+23.4 +0.5 22 +22 +22 комфорт 1013.9 965.1
12 19.06 Ю 1 н/о н/о +18.5 +0.2 29 +20 +20 1015.0 966.2
13 19.06 СВ 2 н/о н/о +17.0 +0.2 32 +17 +17 1015.5 966.6 +27.6
15 19.06 СВ 4 н/о н/о +14.9 +1.1 39 +14 +14 1015.6 966.7
16 19.06 СВ 2 н/о н/о +12.6 0.0 42 +12 +12 1015.1 966.3
18 19.06 СВ 5 н/о н/о +14.0 +0.3 39 +13 +13 1014.9 966.1
19 19.06 СВ 4 н/о н/о +15.2 +0.2 36 +14 +14 1014.5 965.7
21 19.06 В 5 н/о н/о +14.3 +0.2 38 +13 +13 1014.3 965.5
22 19.06 СВ 4 н/о н/о +14.1 0.0 38 +13 +13 1014.5 965.7
00 20.06 СВ 3 н/о н/о +17.8 +1.3 33 +18 +18 1016.2 967.3
01 20.06 СВ 5 н/о н/о +21.4 +2.6 29 +21 +21 комфорт 1016.4 967.5 +12.2
03 20.06 С 4 н/о н/о +26.5 +3.1 22 +25 +25 комфорт 1015.7 966.8
04 20.06 С 5 н/о 4/0 2000 м
[]
+28.5 +5.4 23 +27 +32 жарко 1014.6 965.8
06 20.06 СЗ 6 н/о н/о +28.6 +7.2 26 +28 +28 жарко 1013.0 964.3
07 20.06 С 6 н/о 6/0
[]
+27.8 +7.1 27 +27 +29 жарко 1013.0 964.3
09 20.06 С 6 н/о н/о +27.0 +7.5 29 +27 +27 жарко 1013.5 964.7
10 20.06 СЗ 3 н/о н/о +24.8 +7.0 32 +25 +25 комфорт 1014.0 965.2
12 20.06 ЮЗ 1 н/о н/о +21.8 +7.2 39 +23 +23 комфорт 1015.3 966.4
13 20.06 В 3 н/о 6/0
[]
+21.2 +8.5 44 +22 +22 комфорт 1015.5 966.6 +30.0
15 20.06 СВ 4 н/о н/о +20.7 +13.2 62 +23 +23 комфорт 1015.5 966.6
16 20.06 СВ 3 н/о н/о +20.1 +14.0 68 +23 +23 комфорт 1015.3 966.4
18 20.06 С 5 н/о н/о +20.1 +14.5 70 +22 +22 комфорт 1015.1 966.3
19 20.06 СВ 3 н/о н/о +18.6 +14.1 75 +19 +19 1014.8 966.0
21 20.06 В 4 н/о н/о +17.7 +14.4 81 +18 +18 1015.3 966.4
22 20.06 В 3 н/о 10/0
[]
+17.7 +14.6 82 +18 +18 1015.8 966.9
00 21.06 В 3 н/о н/о +17.3 +14.0 81 +17 +17 1016.8 967.9
01 21.06 СВ 4 н/о н/о +21.2 +15.3 69 +24 +24 комфорт 1017.0 968.1 +16.7
03 21.06 С 6 н/о н/о +24.3 +13.2 50 +26 +26 жарко 1016.1 967.2
04 21.06 С 6 н/о 10/10 1000 м
[]
+25.3 +13.8 49 +28 +28 жарко 1015.7 966.8
06 21.06 С 7 н/о н/о +20.2 +16.4 79 +23 +23 комфорт 1015.0 966.2
07 21.06 СВ 4 н/о ливневой дождь {туман} 6/6 600 м
[]
+21.1 +16.5 75 +25 +26 комфорт 1014.7 965.9
09 21.06 С 5 н/о н/о +20.3 +14.7 70 +23 +23 комфорт 1016.1 967.2
10 21.06 СВ 6 н/о в посл. час дождь со снегом 10/0 2000 м
[]
+19.2 +14.0 72 +20 +20 1016.3 967.4
12 21.06 СВ 5 н/о н/о +18.0 +13.9 77 +18 +18 1017.1 968.2
13 21.06 СВ 3 н/о 10/0 2000 м
[]
+17.3 +13.8 80 +17 +17 1017.5 968.5 +26.1
15 21.06 СВ 3 н/о н/о +17.3 +13.2 77 +17 +17 1016.7 967.8
16 21.06 СВ 3 н/о 10/0 2000 м
[]
+17.5 +12.6 73 +17 +17 1016.2 967.3
18 21.06 СВ 3 н/о н/о +17.5 +11.8 69 +18 +18 1015.9 967.0
19 21.06 В 3 н/о 6/0
[]
+16.6 +11.3 71 +16 +16 1015.6 966.7
21 21.06 СВ 4 н/о н/о +17.1 +10.7 66 +17 +17 1015.6 966.7
22 21.06 В 2 н/о 6/0
[]
+15.8 +9.7 67 +16 +16 1015.9 967.0
00 22.06 СВ 4 н/о н/о +18.7 +6.2 44 +19 +19 1016.9 968.0
01 22.06 СВ 5 н/о 10/0 2000 м
[]
+20.0 +6.0 40 +21 +22 комфорт 1017.0 968.1 +15.5
03 22.06 СВ 8 н/о н/о +25.5 +3.5 24 +25 +25 комфорт 1016.0 967.1
04 22.06 С 8 н/о {туман} 10/0
[]
+25.8 +3.1 23 +25 +26 комфорт 1015.4 966.5
06 22.06 СВ 6 н/о н/о +26.1 +2.1 21 +25 +25 комфорт 1013.4 964.6
07 22.06 С 8 н/о {туман} 9/0
[]
+27.6 +2.6 20 +26 +26 жарко 1013.2 964.4
09 22.06 С 6 н/о н/о +25.5 +2.2 22 +24 +24 комфорт 1013.9 965.1
10 22.06 С 5 н/о 9/0
[]
+24.5 +2.6 24 +24 +24 комфорт 1013.8 965.0
12 22.06 С 4 н/о н/о +23.6 +2.4 25 +23 +23 комфорт 1016.0 967.1
13 22.06 СВ 3 н/о 9/0
[]
+22.8 +2.3 26 +22 +22 комфорт 1016.1 967.2 +28.7
15 22.06 СВ 3 н/о н/о +21.0 +1.8 28 +22 +22 комфорт 1016.0 967.1
16 22.06 С 3 н/о 10/0
[]
+20.5 +1.9 29 +21 +21 комфорт 1015.9 967.0
18 22.06 СВ 4 н/о н/о +19.0 +2.0 32 +19 +19 1015.1 966.3
19 22.06 СВ 4 н/о 6/0
[]
+17.7 +2.5 36 +18 +18 1014.8 966.0
21 22.06 СВ 4 н/о н/о +18.3 +2.6 35 +18 +18 1014.6 965.8
22 22.06 СВ 3 н/о 3/0
[]
+18.2 +2.1 34 +19 +19 1014.7 965.9
00 23.06 СВ 3 н/о н/о +20.9 +1.7 28 +22 +22 комфорт 1015.5 966.6
01 23.06 СВ 3 н/о 9/0
[]
+22.9 +1.9 25 +22 +24 комфорт 1016.0 967.1 +17.5
03 23.06 С 8 н/о н/о +27.2 +0.1 17 +25 +25 комфорт 1015.8 966.9
04 23.06 С 7 н/о н/о +28.2 -1.8 14 +25 +25 комфорт 1015.1 966.3
06 23.06 СЗ 8 н/о н/о +28.9 +1.4 17 +27 +27 жарко 1013.8 965.0
07 23.06 С 8 н/о 5/0
[]
+28.4 -0.7 15 +26 +26 жарко 1013.7 964.9
09 23.06 С 6 н/о н/о +26.9 -2.8 14 +24 +24 комфорт 1015.1 966.3
10 23.06 С 4 н/о 10/0
[]
+26.1 -3.5 14 +24 +24 комфорт 1015.8 966.9
12 23.06 СЗ 4 н/о н/о +24.9 -3.5 15 +23 +23 комфорт 1017.4 968.4
13 23.06 С 2 н/о 10/0
[]
+24.0 -3.3 16 +22 +22 комфорт 1017.5 968.5 +29.8
15 23.06 Ю 3 н/о н/о +21.1 +11.7 55 +23 +23 комфорт 1017.8 968.8
16 23.06 Ю 1 н/о 10/0
[]
+21.0 +11.9 56 +24 +24 комфорт 1017.5 968.5
18 23.06 З 2 н/о н/о +20.5 +10.9 54 +23 +23 комфорт 1017.1 968.2
19 23.06 ЮЗ 2 н/о 10/0
[]
+19.6 +11.6 60 +22 +22 комфорт 1017.0 968.1
21 23.06 Ю 2 н/о н/о +19.0 +11.6 62 +20 +20 1016.9 968.0
22 23.06 Ю 2 н/о 10/0 2000 м
[]
+19.3 +12.1 63 +21 +21 комфорт 1017.6 968.6
00 24.06 Ю 3 н/о н/о +19.9 +11.7 59 +22 +22 комфорт 1018.9 969.9
01 24.06 В 4 н/о н/о +22.1 +8.9 43 +23 +23 комфорт 1019.3 970.3 +18.0
03 24.06 В 3 н/о н/о +25.6 +7.7 32 +26 +26 жарко 1018.8 969.8
04 24.06 ЮВ 3 н/о 9/0
[]
+26.1 +7.2 30 +26 +31 жарко 1018.1 969.1
06 24.06 В 3 н/о н/о +27.5 +4.5 23 +26 +26 жарко 1016.7 967.8
07 24.06 ЮВ 3 н/о 8/0 2000 м
[]
+28.4 +4.6 22 +27 +29 жарко 1016.5 967.6
09 24.06 ЮЗ 3 н/о н/о +27.9 +4.9 23 +27 +27 жарко 1017.1 968.2
10 24.06 Ю 4 н/о 9/0 2000 м
[]
+25.8 +8.3 33 +26 +26 жарко 1017.8 968.8
12 24.06 Ю 4 н/о н/о +24.6 +10.1 40 +26 +26 жарко 1019.2 970.2
13 24.06 ЮВ 2 н/о 10/0
[]
+23.4 +10.5 44 +25 +25 комфорт 1019.8 970.7 +29.6
15 24.06 В 1 н/о н/о +19.4 +9.6 53 +22 +22 комфорт 1019.7 970.6
16 24.06 В 3 н/о н/о +18.6 +9.1 54 +19 +19 1019.2 970.2
18 24.06 В 2 н/о н/о +17.8 +7.8 52 +18 +18 1018.6 969.6
19 24.06 СВ 3 н/о 10/0
[]
+19.2 +7.3 46 +20 +20 1018.6 969.6
21 24.06 СВ 3 н/о н/о +18.4 +4.6 40 +19 +19 1018.7 969.7
22 24.06 В 2 н/о 10/0
[]
+18.9 +1.4 31 +20 +20 1019.2 970.2
00 25.06 В 2 н/о н/о +18.8 +2.6 34 +20 +20 1020.2 971.1
01 25.06 СВ 2 н/о 10/0
[]
+22.0 +3.2 29 +22 +24 комфорт 1020.9 971.8 +17.0
03 25.06 В 2 н/о н/о +24.4 +6.6 32 +24 +24 комфорт 1020.8 971.7
04 25.06 СВ 2 н/о 6/0
[]
+26.6 +3.8 23 +25 +33 комфорт 1019.8 970.7
06 25.06 С 3 н/о н/о +27.9 -0.2 16 +26 +26 жарко 1018.1 969.1
07 25.06 З 2 н/о 9/0
[]
+28.0 +0.7 17 +26 +28 жарко 1018.0 969.0

 

Местоположение метеостанции Параберду (Западная Австралия, Австралия): широта -23.17 долгота 117.75 высота над уровнем моря 424 м.

В архиве по умолчанию представлена погода в Параберду за последнюю неделю. Архивные данные за месяц целиком и за предыдущие месяцы, начиная с января 2011 года, Вы можете получить, выбрав интересующий диапазон дат из раскрывающегося списка и нажав кнопку "Ввод!".


*Определитесь, кто Вы:
робот инопланетянин человек

Внимание! Время в таблицах - всемирное. Для получения местного времени необходимо прибавить поправку, которая равна 8 ч.

Смотрите также архив погоды в соседних городах и на ближайших метеорологических станциях:

Погода в Ньюмане (Западная Австралия, Австралия) (211 км)
Погода в Роборн аэропорту (Западная Австралия, Австралия) (276 км)
Погода в Марди (Западная Австралия, Австралия) (287 км)
Погода в Каррате (Западная Австралия, Австралия) (291 км)
Погода в Марбл-баре (Западная Австралия, Австралия) (302 км)
Погода в Онслоу (Западная Австралия, Австралия) (318 км)
Погода в Порт-Хедленде Apardoo (Западная Австралия, Австралия) (325 км)
Погода на Острове Тевенард (Западная Австралия, Австралия) (340 км)
Погода в Барроу-Айленд (Западная Австралия, Австралия) (352 км)
Погода на Острове Варанас (Западная Австралия, Австралия) (359 км)

Пояснения к столбцам:

Ветер - указаны скорость ветра в м/с - средняя за 10 мин, порывы в срок и между сроками (в фигурных скобках) и направление, откуда дует ветер: С - северный, СВ - северо-восточный, В - восточный, ЮВ - юго-восточный, Ю - южный, ЮЗ - юго-западный, З - западный, СЗ - северо-западный.
Видимость - горизонтальная дальность видимости в метрах или километрах. При видимости от 1 до 10 км при отсутствии осадков обычно наблюдается дымка, при ухудшении видимости до 1 км и менее - туман. В сухую погоду видимость может ухудшаться дымом, пылью или мглою.
Явления - указаны атмосферные явления, наблюдавшиеся в срок или в последний час перед сроком; фигурными скобками обозначены явления, наблюдавшиеся между сроками (за 1-3 часа до срока); квадратными скобками обозначены град или гололедные отложения с указанием их диаметра в мм.
Облачность - указаны через наклонную черту общая и нижняя облачность в баллах и высота нижней границы облаков в метрах; квадратными скобками обозначены формы облаков: Ci - перистые, Cs - перисто-слоистые, Cc - перисто-кучевые, Ac - высококучевые, As - высокослоистые, Sc - слоисто-кучевые, Ns - слоисто-дождевые, Cu - кучевые, Cb - кучево-дождевые. Подробнее классификацию облаков см. в Атласе облаков (PDF).
T - Температура воздуха - температура, измеренная на высоте 2 м над землей.
Td - Температура точки росы - температура, при понижении до которой содержащийся в воздухе водяной пар достигнет насыщения.
f - Относительная влажность воздуха - влажноcть воздуха, измеренная на высоте 2 м над землей.
Te - Эффективная температура - температура, которую ощущает одетый по сезону человек в тени. Характеристика душности погоды. При расчете учитывается влияние влажности воздуха и скорости ветра на теплоощущения человека.
Tes - Эффективная температура на солнце - температура, которую ощущает человек, с поправкой на солнечный нагрев. Характеристика знойности погоды. Зависит от высоты солнца над горизонтом, облачности и скорости ветра. Ночью, в пасмурную погоду, а также при ветре 12 м/с и более поправка равна нулю.
P - Атмосферное давление - приведенное к уровню моря атмосферное давление.
Po - Атмосферное давление - измеренное на уровне метеостанции атмосферное давление.
Tmin - Минимальная температура - минимум температуры воздуха на высоте 2 м над землей.
Tmax - Максимальная температура - максимум температуры воздуха на высоте 2 м над землей.
R - Количество осадков - Количество выпавших осадков за период времени, мм. При наведении курсора мыши на число - период времени, за который выпало указанное количество осадков.
R24 - Количество осадков - Количество выпавших осадков за 24 часа, мм.
S - Снежный покров - Высота снежного покрова, см. При наведении курсора мыши на число - состояние снежного покрова и степень покрытия местности в баллах.